Location: Bern�tre
(50.1974°N, 2.0915°E)
Time: 06:07:10
(UTC+00:00)

CENTAUR R/B - Pass Details

Date: 18 September 2020
Orbit: 755 x 1433 km, 63.4° (Epoch: 02 October)

Event Time Altitude Azimuth Distance (km) Brightness Sun altitude
Rises 19:22:15 0° 314° (NW) 4,031 7.0 -14.0°
Reaches altitude 10° 19:24:52 10° 318° (NW) 3,157 6.2 -14.4°
Maximum altitude 19:32:38 65° 40° (NE) 1,452 3.3 -15.6°
Enters shadow 19:38:32 22° 117° (ESE) 2,647 4.1 -16.5°
